Location: Lawrence
(38.9720°N, 95.2350°W)
Time: 11:31:26
(UTC-05:00)

Amateur Radio Satellites - All Passes

Search period start: 02 July 2015 11:01
Search period end: 03 July 2015 11:01
Location: Lawrence, 38.9720°N, 95.2350°W

Satellite Date Start Highest point End Downlink Frequencies (MHz)
Time Altitude Azimuth
QB50P2 02 Jul 11:01:40 11:05:18 29° 71° (ENE) 11:09:00 145.880/145.840
COMPASS 1 02 Jul 11:02:38 11:06:26 32° 288° (WNW) 11:10:09 437.405
POPSAT HIP 1 02 Jul 11:03:03 11:06:42 29° 71° (ENE) 11:10:23 437.405
UWE-3 02 Jul 11:03:36 11:07:48 71° 101° (E) 11:12:04 435.000/436.395/437.385
CUTE 1.7 + AOD 2 02 Jul 11:05:01 11:08:15 21° 291° (WNW) 11:11:23 437.475
CANX-2 02 Jul 11:08:16 11:11:11 18° 292° (WNW) 11:13:57 2200.000
ANTELSAT 02 Jul 11:09:17 11:13:36 87° 78° (ENE) 11:17:54 437.575/2403.000
DELFI C3 02 Jul 11:11:16 11:15:22 83° 102° (ESE) 11:19:26 145.870
DOVE 4 02 Jul 11:13:22 11:15:52 15° 293° (WNW) 11:18:12 437.250
AIST 2 02 Jul 11:21:39 11:23:42 13° 319° (NW) 11:25:35 435.215
TIGRISAT 02 Jul 11:22:50 11:27:08 68° 259° (WSW) 11:31:23 435.000
VELOX 1 02 Jul 11:25:28 11:28:15 17° 92° (E) 11:31:11 145.980
50 SAT 02 Jul 11:32:27 11:35:29 22° 94° (E) 11:38:36 437.505
QB50P1 02 Jul 11:41:40 11:45:55 82° 77° (ENE) 11:50:11 145.935-145.965
DX 1 02 Jul 11:43:20 11:47:34 50° 100° (E) 11:51:47 434.975-435.025
HO-68 02 Jul 11:43:35 11:49:11 25° 299° (WNW) 11:54:35 435.675
CUBEBUG 2 02 Jul 11:44:09 11:47:51 31° 288° (WNW) 11:51:35 437.445
ISS 02 Jul 11:46:46 11:48:18 13° 344° (NNW) 11:49:48 145.825
NANOSAT C BR1 02 Jul 11:56:56 12:01:09 67° 259° (W) 12:05:23 145.865
ZACube-1 02 Jul 11:57:07 12:00:59 36° 287° (WNW) 12:04:52 437.345
UNISAT 6 02 Jul 12:02:30 12:06:01 23° 265° (W) 12:09:25 437.425
DUCHIFAT 1 02 Jul 12:04:50 12:08:59 55° 260° (W) 12:13:09 145.980
PHONESAT 2.4 02 Jul 12:06:27 12:09:55 82° 348° (NNW) 12:13:24 2401.200-2431.200
POLYITAN 1 02 Jul 12:06:46 12:10:54 49° 261° (W) 12:15:02 437.675
UKube-1 02 Jul 12:07:58 12:12:19 89° 103° (ESE) 12:16:38 .
AISAT 02 Jul 12:10:34 12:14:55 56° 101° (E) 12:19:13 437.250
Oscar 11 02 Jul 12:12:35 12:15:19 16° 293° (WNW) 12:17:54 145.826/435.025
Cosmos 2499 02 Jul 12:18:07 12:25:11 68° 280° (W) 12:32:15 435.465 / 435.565
VERMONT LUNAR 02 Jul 12:24:27 12:27:36 73° 8° (N) 12:30:47 437.305
GONETS M04 02 Jul 12:26:26 12:31:38 16° 300° (WNW) 12:36:17
RS-15 02 Jul 12:32:35 12:44:23 83° 58° (ENE) 12:56:38 29.354- 29.394
BUGSAT 1 02 Jul 12:32:55 12:36:55 39° 262° (W) 12:40:52 437.445
ESTCUBE 1 02 Jul 12:33:39 12:38:11 65° 101° (E) 12:42:41 437.505/2401.250
FUNcube-1 02 Jul 12:35:36 12:38:05 15° 293° (WNW) 12:40:25 145.935
HUMSAT D 02 Jul 12:36:15 12:39:55 30° 288° (WNW) 12:43:32 437.325/437.525
CUBEBUG 1 02 Jul 12:36:17 12:40:36 57° 100° (E) 12:44:51 437.445
QB50P2 02 Jul 12:37:50 12:41:14 22° 266° (W) 12:44:30 145.880/145.840
POPSAT HIP 1 02 Jul 12:39:13 12:42:35 22° 266° (W) 12:45:52 437.405
VELOX 1 02 Jul 13:00:52 13:05:02 40° 288° (WNW) 13:09:08 145.980
TISAT 1 02 Jul 13:03:50 13:06:55 20° 93° (E) 13:10:04 437.305
50 SAT 02 Jul 13:06:52 13:10:04 24° 289° (WNW) 13:13:13 437.505
DX 1 02 Jul 13:21:00 13:23:27 14° 294° (WNW) 13:25:41 434.975-435.025
Gurwin Techsat 1B 02 Jul 13:34:18 13:36:57 14° 63° (ENE) 13:39:50 435.225
PHONESAT 2.4 02 Jul 13:44:36 13:48:04 70° 6° (N) 13:51:33 2401.200-2431.200
Oscar 19 02 Jul 13:45:10 13:50:13 61° 74° (ENE) 13:55:18 437.125/150
SPROUT 02 Jul 13:47:32 13:51:49 78° 284° (WNW) 13:56:04 437.525
AISAT 02 Jul 13:48:52 13:51:03 13° 295° (WNW) 13:53:03 437.250
ITAMSAT 1 02 Jul 13:52:59 13:56:42 21° 65° (ENE) 14:00:36 435.822/435.867
BEESAT 02 Jul 13:59:26 14:01:50 14° 90° (E) 14:04:28 436.000
VERMONT LUNAR 02 Jul 14:01:29 14:04:27 37° 204° (SSW) 14:07:25 437.305
YUBILEINY 02 Jul 14:05:01 14:11:29 23° 65° (ENE) 14:18:17 435.215
AO-7 02 Jul 14:08:05 14:10:53 12° 48° (NE) 14:14:13 29.400- 29.500
ESTCUBE 1 02 Jul 14:12:33 14:14:34 12° 296° (WNW) 14:16:21 437.505/2401.250
SWISSCUBE 02 Jul 14:13:39 14:17:19 22° 93° (E) 14:21:06 437.505
CUBEBUG 1 02 Jul 14:14:28 14:16:30 13° 295° (WNW) 14:18:19 437.445
ITUPSAT 1 02 Jul 14:17:48 14:21:28 22° 93° (E) 14:25:14 437.325
Cosmos 2491 02 Jul 14:27:43 14:31:33 14° 79° (ENE) 14:36:03 435.465 / 435.565
TISAT 1 02 Jul 14:39:03 14:42:44 30° 289° (WNW) 14:46:22 437.305
JAS-2 02 Jul 14:44:36 14:47:26 15° 62° (ENE) 14:50:34 435.910
RS-15 02 Jul 14:46:35 14:55:52 26° 256° (WSW) 15:04:46 29.354- 29.394
ISS 02 Jul 15:00:48 15:03:15 20° 24° (NNE) 15:05:45 145.825
Gurwin Techsat 1B 02 Jul 15:11:04 15:16:22 73° 257° (WSW) 15:21:43 435.225
PHONESAT 2.4 02 Jul 15:22:42 15:26:04 48° 203° (SSW) 15:29:27 2401.200-2431.200
Oscar 19 02 Jul 15:27:07 15:30:04 15° 270° (W) 15:32:46 437.125/150
ITAMSAT 1 02 Jul 15:30:52 15:35:54 48° 261° (W) 15:40:57 435.822/435.867
BEESAT 02 Jul 15:35:23 15:40:07 57° 287° (WNW) 15:44:47 436.000
AIST 1 02 Jul 15:39:48 15:42:36 17° 88° (E) 15:45:35
HORYU 2 02 Jul 15:47:15 15:51:14 34° 71° (ENE) 15:55:16 437.375
KKS-1 02 Jul 15:49:35 15:53:36 34° 97° (E) 15:57:38 437.445
SWISSCUBE 02 Jul 15:50:53 15:55:18 36° 289° (WNW) 15:59:39 437.505
AO-7 02 Jul 15:54:03 16:02:07 58° 67° (ENE) 16:10:17 29.400- 29.500
ITUPSAT 1 02 Jul 15:55:03 15:59:29 37° 289° (WNW) 16:03:52 437.325
YUBILEINY 02 Jul 16:00:34 16:09:18 73° 266° (W) 16:18:01 435.215
Cosmos 2504 02 Jul 16:01:37 16:03:53 12° 60° (ENE) 16:06:49 435.465 / 435.565
Cosmos 2491 02 Jul 16:18:24 16:27:14 82° 95° (E) 16:36:05 435.465 / 435.565
PCSat 02 Jul 16:19:53 16:24:54 41° 112° (ESE) 16:29:59 145.827
JAS-2 02 Jul 16:27:00 16:32:06 60° 259° (W) 16:37:21 435.910
ISS 02 Jul 16:36:42 16:39:54 58° 222° (SW) 16:43:04 145.825
STARS 02 Jul 16:47:00 16:51:24 89° 286° (WNW) 16:55:46 437.465
SO-50 02 Jul 16:50:09 16:52:53 16° 109° (ESE) 16:55:53 436.795
BEESAT 3 02 Jul 16:50:23 16:54:00 30° 51° (NE) 16:57:36 437.485
BEESAT 2 02 Jul 16:59:23 17:03:01 30° 51° (NE) 17:06:38 435.950
PHONESAT 2.4 02 Jul 17:02:35 17:03:38 11° 215° (SW) 17:04:34 2401.200-2431.200
O/OREOS (USA 219) 02 Jul 17:03:28 17:04:41 11° 51° (NE) 17:06:09 437.305
AIST 1 02 Jul 17:15:56 17:20:00 36° 283° (WNW) 17:24:05
HORYU 2 02 Jul 17:24:42 17:27:59 20° 267° (W) 17:31:10 437.375
KKS-1 02 Jul 17:26:41 17:30:03 21° 292° (WNW) 17:33:18 437.445
MOZHAYETS 4 02 Jul 17:27:08 17:31:31 40° 98° (E) 17:35:53
AO-7 02 Jul 17:48:13 17:55:23 30° 265° (W) 18:02:23 29.400- 29.500
CUTE-I 02 Jul 17:50:48 17:54:58 24° 66° (ENE) 17:59:17 437.470
Cosmos 2504 02 Jul 17:51:09 17:58:51 71° 81° (E) 18:07:08 435.465 / 435.565
YUBILEINY 02 Jul 18:01:36 18:04:47 12° 283° (WNW) 18:07:14 435.215
AIST 2 02 Jul 18:03:20 18:07:13 36° 52° (NE) 18:11:04 435.215
PCSat 02 Jul 18:03:49 18:08:28 28° 309° (NW) 18:13:05 145.827
Cosmos 2491 02 Jul 18:18:55 18:25:20 21° 297° (WNW) 18:31:20 435.465 / 435.565
Cubesat XI-IV 02 Jul 18:23:13 18:28:19 48° 72° (ENE) 18:33:30 437.490
SO-50 02 Jul 18:28:19 18:32:58 57° 305° (NW) 18:37:48 436.795
BEESAT 3 02 Jul 18:28:37 18:31:48 22° 247° (WSW) 18:34:52 437.485
BEESAT 2 02 Jul 18:37:42 18:40:57 23° 247° (WSW) 18:44:05 435.950
O/OREOS (USA 219) 02 Jul 18:40:15 18:44:47 79° 249° (WSW) 18:49:19 437.305
MOZHAYETS 4 02 Jul 19:05:04 19:08:29 20° 292° (WNW) 19:11:45
CUBESAT XI-V 02 Jul 19:24:42 19:29:20 58° 100° (E) 19:33:56 437.345
DANDE 02 Jul 19:29:11 19:30:42 14° 68° (ENE) 19:32:13 436.750
STRAND 1 02 Jul 19:29:27 19:33:19 22° 93° (E) 19:37:18 437.568
CUTE-I 02 Jul 19:29:45 19:34:50 42° 262° (W) 19:39:55 437.470
AIST 2 02 Jul 19:42:28 19:45:34 20° 248° (WSW) 19:48:32 435.215
GOMX 1 02 Jul 19:45:17 19:48:55 20° 68° (ENE) 19:52:33 467.674
Cosmos 2504 02 Jul 19:46:07 19:51:42 21° 276° (W) 19:57:09 435.465 / 435.565
BRITE-PL 02 Jul 19:57:32 20:02:44 44° 73° (ENE) 20:07:43 437.365/2234.400
Cubesat XI-IV 02 Jul 20:04:43 20:08:45 20° 268° (W) 20:12:35 437.490
JUGNU 02 Jul 20:05:17 20:06:59 11° 182° (S) 20:08:40 437.505
SO-50 02 Jul 20:14:22 20:14:42 10° 326° (NW) 20:14:48 436.795
COMPASS 1 02 Jul 20:19:18 20:20:53 12° 66° (ENE) 20:22:40 437.405
CUTE 1.7 + AOD 2 02 Jul 20:21:03 20:24:06 20° 69° (ENE) 20:27:16 437.475
CUSAT 1 02 Jul 20:21:23 20:23:52 34° 264° (W) 20:26:14 437.405
HO-68 02 Jul 20:22:07 20:28:42 43° 67° (ENE) 20:35:22 435.675
CANX-2 02 Jul 20:23:45 20:27:06 24° 70° (ENE) 20:30:32 2200.000
PRISM 02 Jul 20:32:19 20:36:33 84° 284° (WNW) 20:40:43 437.425
GONETS M04 02 Jul 20:36:19 20:44:36 47° 75° (ENE) 20:52:55
DOVE 4 02 Jul 20:38:21 20:42:57 40° 73° (ENE) 20:47:20 437.250
SRMSAT 02 Jul 20:53:41 20:55:11 11° 177° (S) 20:56:42 437.500
CUBESAT XI-V 02 Jul 21:03:44 21:06:20 14° 295° (WNW) 21:08:43 437.345
CUBEBUG 2 02 Jul 21:06:06 21:08:36 16° 68° (ENE) 21:11:14 437.445
STRAND 1 02 Jul 21:07:53 21:12:43 42° 289° (WNW) 21:17:30 437.568
SEEDS 02 Jul 21:11:27 21:15:33 62° 75° (ENE) 21:19:42 437.485
DANDE 02 Jul 21:12:53 21:13:44 11° 271° (W) 21:14:25 436.750
AUBIESAT-1 02 Jul 21:13:52 21:16:37 17° 98° (E) 21:19:37 437.475
ZACube-1 02 Jul 21:18:01 21:19:44 13° 66° (ENE) 21:21:38 437.345
GOMX 1 02 Jul 21:21:44 21:26:47 47° 261° (W) 21:31:34 467.674
AAUSAT CUBESAT 2 02 Jul 21:27:39 21:31:43 64° 76° (ENE) 21:35:51 437.432
Oscar 11 02 Jul 21:29:09 21:32:50 29° 71° (ENE) 21:36:37 145.826/435.025
BRITE-PL 02 Jul 21:36:59 21:41:23 23° 267° (W) 21:45:30 437.365/2234.400
CINEMA 3 02 Jul 21:38:49 21:43:25 80° 76° (ENE) 21:47:49 145.822/145.860
M-CUBED/EXP-1 PRIME 02 Jul 21:45:08 21:49:10 44° 104° (ESE) 21:53:29 437.505
COMPASS 1 02 Jul 21:52:04 21:56:08 54° 260° (W) 22:00:13 437.405
FUNcube-1 02 Jul 21:52:57 21:56:37 30° 71° (ENE) 22:00:17 145.935
HUMSAT D 02 Jul 21:53:10 21:54:56 13° 67° (ENE) 21:56:53 437.325/437.525
CUTE 1.7 + AOD 2 02 Jul 21:56:05 21:59:51 31° 264° (W) 22:03:36 437.475
DELFI C3 02 Jul 21:57:16 22:01:00 40° 73° (ENE) 22:04:49 145.870
CANX-2 02 Jul 21:59:24 22:02:57 26° 265° (W) 22:06:29 2200.000
UWE-3 02 Jul 21:59:37 22:03:43 48° 74° (ENE) 22:07:48 435.000/436.395/437.385
Cosmos 2499 02 Jul 22:09:12 22:16:22 39° 74° (ENE) 22:24:08 435.465 / 435.565
HO-68 02 Jul 22:10:03 22:16:32 35° 264° (W) 22:22:55 435.675
DOVE 4 02 Jul 22:17:08 22:20:50 20° 267° (W) 22:24:15 437.250
50 SAT 02 Jul 22:17:34 22:18:34 11° 66° (ENE) 22:19:46 437.505
VELOX 1 02 Jul 22:22:43 22:25:02 14° 65° (ENE) 22:27:32 145.980
GONETS M04 02 Jul 22:33:33 22:41:15 35° 273° (W) 22:48:44
DX 1 02 Jul 22:37:43 22:41:45 38° 71° (ENE) 22:45:50 434.975-435.025
CUBEBUG 2 02 Jul 22:40:52 22:45:01 42° 262° (W) 22:49:04 437.445
AUBIESAT-1 02 Jul 22:47:30 22:51:29 42° 291° (WNW) 22:55:41 437.475
ZACube-1 02 Jul 22:51:34 22:55:43 53° 260° (W) 22:59:49 437.345
UKube-1 02 Jul 23:01:19 23:05:37 64° 75° (ENE) 23:09:56 .
ANTELSAT 02 Jul 23:03:01 23:06:07 19° 93° (E) 23:09:24 437.575/2403.000
Oscar 11 02 Jul 23:05:40 23:09:03 22° 267° (W) 23:12:22 145.826/435.025
AISAT 02 Jul 23:07:00 23:11:15 44° 72° (ENE) 23:15:31 437.250
TIGRISAT 02 Jul 23:15:52 23:19:28 25° 95° (E) 23:23:12 435.000
M-CUBED/EXP-1 PRIME 02 Jul 23:20:55 23:23:45 17° 296° (WNW) 23:26:35 437.505
HUMSAT D 02 Jul 23:26:18 23:30:18 49° 261° (W) 23:34:18 437.325/437.525
QB50P1 02 Jul 23:29:30 23:31:41 14° 91° (E) 23:34:04 145.935-145.965
FUNcube-1 02 Jul 23:29:46 23:32:59 20° 266° (W) 23:36:05 145.935
CUBEBUG 1 02 Jul 23:31:04 23:35:14 41° 72° (ENE) 23:39:26 437.445
ESTCUBE 1 02 Jul 23:31:57 23:36:20 51° 73° (ENE) 23:40:45 437.505/2401.250
DELFI C3 02 Jul 23:34:10 23:36:21 14° 270° (W) 23:38:21 145.870
UWE-3 02 Jul 23:38:30 23:40:35 13° 270° (W) 23:42:25 435.000/436.395/437.385
NANOSAT C BR1 02 Jul 23:43:44 23:46:51 21° 94° (E) 23:50:04 145.865
50 SAT 02 Jul 23:49:04 23:52:48 50° 260° (W) 23:56:33 437.505
DUCHIFAT 1 02 Jul 23:51:08 23:54:32 24° 95° (E) 23:58:00 145.980
POLYITAN 1 02 Jul 23:53:35 23:57:11 27° 96° (E) 00:00:50 437.675
UNISAT 6 02 Jul 23:54:12 23:58:35 73° 102° (ESE) 00:03:03 437.425
TISAT 1 02 Jul 23:55:49 23:58:02 14° 66° (ENE) 00:00:25 437.305
VELOX 1 02 Jul 23:56:49 00:01:11 53° 260° (W) 00:05:35 145.980
Cosmos 2499 03 Jul 00:02:19 00:09:34 41° 270° (W) 00:17:09 435.465 / 435.565
DX 1 03 Jul 00:15:05 00:18:10 18° 267° (W) 00:21:07 434.975-435.025
BUGSAT 1 03 Jul 00:16:26 00:20:01 30° 96° (E) 00:23:36 437.445
QB50P2 03 Jul 00:23:11 00:27:22 64° 101° (E) 00:31:32 145.880/145.840
POPSAT HIP 1 03 Jul 00:24:24 00:28:35 63° 101° (E) 00:32:44 437.405
ANTELSAT 03 Jul 00:39:01 00:43:01 35° 288° (WNW) 00:47:03 437.575/2403.000
SPROUT 03 Jul 00:40:09 00:44:26 68° 76° (ENE) 00:48:45 437.525
UKube-1 03 Jul 00:41:31 00:42:15 10° 271° (W) 00:42:41 .
AISAT 03 Jul 00:45:12 00:48:04 16° 269° (W) 00:50:46 437.250
TIGRISAT 03 Jul 00:52:30 00:56:11 27° 290° (WNW) 00:59:51 435.000
QB50P1 03 Jul 01:03:49 01:07:49 43° 287° (WNW) 01:11:48 145.935-145.965
BEESAT 03 Jul 01:05:09 01:07:48 15° 65° (ENE) 01:10:39 436.000
CUBEBUG 1 03 Jul 01:08:51 01:11:48 17° 268° (W) 01:14:36 437.445
PCSat 03 Jul 01:09:00 01:13:34 27° 50° (NE) 01:18:12 145.827
ESTCUBE 1 03 Jul 01:11:00 01:13:34 14° 270° (W) 01:15:53 437.505/2401.250
NANOSAT C BR1 03 Jul 01:19:03 01:22:44 30° 289° (WNW) 01:26:22 145.865
SWISSCUBE 03 Jul 01:19:17 01:22:58 23° 68° (ENE) 01:26:46 437.505
SO-50 03 Jul 01:21:48 01:24:35 15° 39° (NE) 01:27:30 436.795
ITUPSAT 1 03 Jul 01:23:42 01:27:22 23° 68° (ENE) 01:31:11 437.325
DUCHIFAT 1 03 Jul 01:26:49 01:30:18 25° 290° (WNW) 01:33:42 145.980
TISAT 1 03 Jul 01:29:20 01:33:27 47° 261° (W) 01:37:33 437.305
POLYITAN 1 03 Jul 01:29:38 01:32:59 23° 291° (WNW) 01:36:14 437.675
UNISAT 6 03 Jul 01:34:05 01:34:53 10° 295° (WNW) 01:35:25 437.425
BUGSAT 1 03 Jul 01:52:21 01:55:19 19° 292° (WNW) 01:58:09 437.445
Oscar 19 03 Jul 01:58:36 02:02:35 23° 93° (E) 02:06:42 437.125/150
QB50P2 03 Jul 02:01:33 02:02:47 11° 295° (WNW) 02:03:47 145.880/145.840
POPSAT HIP 1 03 Jul 02:02:45 02:03:59 11° 295° (WNW) 02:04:58 437.405
Cosmos 2491 03 Jul 02:30:46 02:38:42 38° 72° (ENE) 02:46:43 435.465 / 435.565
BEESAT 03 Jul 02:40:32 02:45:13 57° 260° (W) 02:49:56 436.000
KKS-1 03 Jul 02:46:47 02:50:32 28° 70° (ENE) 02:54:21 437.445
PCSat 03 Jul 02:52:03 02:57:09 42° 248° (WSW) 03:02:12 145.827
RS-15 03 Jul 02:54:25 03:04:58 61° 114° (ESE) 03:15:52 29.354- 29.394
SWISSCUBE 03 Jul 02:56:15 03:00:38 36° 263° (W) 03:05:02 437.505
ITUPSAT 1 03 Jul 03:00:41 03:05:05 36° 263° (W) 03:09:30 437.325
SO-50 03 Jul 03:00:53 03:05:53 88° 240° (WSW) 03:10:45 436.795
YUBILEINY 03 Jul 03:05:14 03:11:57 27° 84° (E) 03:18:57 435.215
AIST 1 03 Jul 03:24:01 03:28:15 46° 79° (E) 03:32:24
Gurwin Techsat 1B 03 Jul 03:28:34 03:33:44 50° 99° (E) 03:38:53 435.225
JAS-2 03 Jul 03:36:12 03:40:57 21° 91° (E) 03:46:20 435.910
Oscar 19 03 Jul 03:37:20 03:42:05 39° 290° (WNW) 03:46:48 437.125/150
STARS 03 Jul 03:42:26 03:46:48 68° 75° (ENE) 03:51:11 437.465
ITAMSAT 1 03 Jul 03:44:41 03:49:55 67° 102° (ESE) 03:55:05 435.822/435.867
AO-7 03 Jul 03:58:38 04:03:53 19° 90° (E) 04:09:35 29.400- 29.500
KKS-1 03 Jul 04:23:23 04:27:09 25° 265° (W) 04:30:49 437.445
Cosmos 2491 03 Jul 04:27:33 04:35:44 45° 271° (W) 04:43:44 435.465 / 435.565
MOZHAYETS 4 03 Jul 04:28:03 04:32:05 32° 71° (ENE) 04:36:12
YUBILEINY 03 Jul 04:59:40 05:08:14 61° 282° (WNW) 05:16:50 435.215
AIST 1 03 Jul 05:03:20 05:05:30 13° 274° (W) 05:07:26
RS-15 03 Jul 05:07:43 05:17:57 41° 318° (NW) 05:28:25 29.354- 29.394
Gurwin Techsat 1B 03 Jul 05:09:28 05:13:23 21° 295° (WNW) 05:17:09 435.225
HORYU 2 03 Jul 05:15:30 05:19:59 85° 104° (ESE) 05:24:28 437.375
JAS-2 03 Jul 05:19:54 05:26:25 68° 286° (WNW) 05:33:43 435.910
ITAMSAT 1 03 Jul 05:25:52 05:28:55 15° 297° (WNW) 05:31:42 435.822/435.867
AO-7 03 Jul 05:49:21 05:57:46 84° 289° (WNW) 06:06:07 29.400- 29.500
MOZHAYETS 4 03 Jul 06:05:44 06:09:22 22° 267° (W) 06:12:56
CUBESAT XI-V 03 Jul 06:26:41 06:31:11 49° 74° (ENE) 06:35:46 437.345
Cosmos 2504 03 Jul 06:28:37 06:35:41 60° 93° (E) 06:42:44 435.465 / 435.565
Cubesat XI-IV 03 Jul 06:42:29 06:46:24 21° 92° (E) 06:50:28 437.490
STRAND 1 03 Jul 06:44:04 06:48:23 29° 68° (ENE) 06:52:49 437.568
YUBILEINY 03 Jul 07:06:01 07:07:27 10° 306° (NW) 07:08:08 435.215
JAS-2 03 Jul 07:08:30 07:10:45 11° 300° (WNW) 07:12:34 435.910
O/OREOS (USA 219) 03 Jul 07:14:39 07:16:39 13° 100° (E) 07:18:55 437.305
PRISM 03 Jul 07:20:53 07:24:58 59° 74° (ENE) 07:29:06 437.425
RS-15 03 Jul 07:27:25 07:34:44 18° 350° (N) 07:42:06 29.354- 29.394
CUSAT 1 03 Jul 07:42:59 07:48:01 23° 94° (E) 07:52:23 437.405
AO-7 03 Jul 07:43:58 07:49:31 19° 307° (NW) 07:54:41 29.400- 29.500
CUTE-I 03 Jul 07:47:41 07:53:05 86° 100° (E) 07:58:27 437.470
AUBIESAT-1 03 Jul 08:02:03 08:03:40 13° 62° (ENE) 08:05:25 437.475
CUBESAT XI-V 03 Jul 08:06:00 08:08:58 16° 270° (W) 08:11:44 437.345
BRITE-PL 03 Jul 08:06:30 08:07:39 11° 87° (E) 08:09:04 437.365/2234.400
VERMONT LUNAR 03 Jul 08:11:59 08:14:30 23° 151° (SSE) 08:17:03 437.305
BEESAT 3 03 Jul 08:18:53 08:22:57 86° 124° (SE) 08:27:05 437.485
Cubesat XI-IV 03 Jul 08:21:38 08:26:47 47° 289° (WNW) 08:31:52 437.490
STRAND 1 03 Jul 08:22:55 08:27:31 32° 264° (W) 08:32:07 437.568
Cosmos 2504 03 Jul 08:24:13 08:29:43 22° 293° (WNW) 08:34:57 435.465 / 435.565
BEESAT 2 03 Jul 08:28:56 08:33:02 86° 125° (SE) 08:37:11 435.950
M-CUBED/EXP-1 PRIME 03 Jul 08:33:17 08:36:21 38° 69° (ENE) 08:39:33 437.505
DANDE 03 Jul 08:34:13 08:41:29 51° 96° (E) 08:47:16 436.750
O/OREOS (USA 219) 03 Jul 08:51:19 08:55:41 51° 295° (WNW) 09:00:03 437.305
SEEDS 03 Jul 08:59:08 09:00:25 11° 89° (E) 09:01:58 437.485
PRISM 03 Jul 09:00:06 09:00:52 10° 271° (W) 09:01:22 437.425
AAUSAT CUBESAT 2 03 Jul 09:14:06 09:15:12 11° 89° (E) 09:16:34 437.432
ISS 03 Jul 09:14:32 09:17:46 81° 140° (SE) 09:21:01 145.825
CUSAT 1 03 Jul 09:24:01 09:30:35 47° 281° (WNW) 09:35:38 437.405
GOMX 1 03 Jul 09:25:06 09:29:13 54° 99° (E) 09:33:16 467.674
CUTE-I 03 Jul 09:30:13 09:32:31 12° 299° (WNW) 09:34:32 437.470
AUBIESAT-1 03 Jul 09:35:14 09:38:12 30° 258° (WSW) 09:41:13 437.475
GONETS M04 03 Jul 09:35:22 09:43:52 57° 91° (E) 09:52:24
CINEMA 3 03 Jul 09:35:44 09:38:36 18° 93° (E) 09:41:36 145.822/145.860
COMPASS 1 03 Jul 09:36:57 09:40:26 25° 94° (E) 09:43:59 437.405
AIST 2 03 Jul 09:37:49 09:42:04 73° 302° (WNW) 09:46:21 435.215
HO-68 03 Jul 09:38:05 09:44:57 49° 100° (E) 09:51:51 435.675
CUTE 1.7 + AOD 2 03 Jul 09:41:52 09:46:00 46° 98° (E) 09:50:08 437.475
BRITE-PL 03 Jul 09:42:30 09:46:44 52° 286° (WNW) 09:50:46 437.365/2234.400
RS-15 03 Jul 09:44:08 09:52:54 25° 25° (NNE) 10:02:15 29.354- 29.394
CANX-2 03 Jul 09:44:56 09:49:09 56° 99° (E) 09:53:23 2200.000
PHONESAT 2.4 03 Jul 09:45:33 09:48:24 25° 151° (SSE) 09:51:18 2401.200-2431.200
VERMONT LUNAR 03 Jul 09:48:04 09:51:12 88° 154° (SSE) 09:54:21 437.305
BEESAT 3 03 Jul 10:00:04 10:01:34 11° 320° (NW) 10:02:52 437.485
ANTELSAT 03 Jul 10:01:58 10:04:22 15° 67° (ENE) 10:06:55 437.575/2403.000
BEESAT 2 03 Jul 10:10:12 10:11:44 12° 319° (NW) 10:13:07 435.950
TIGRISAT 03 Jul 10:14:15 10:17:18 20° 69° (ENE) 10:20:27 435.000
DOVE 4 03 Jul 10:16:04 10:20:12 62° 285° (WNW) 10:24:18 437.250
DANDE 03 Jul 10:18:41 10:24:44 26° 286° (WNW) 10:29:34 436.750
QB50P1 03 Jul 10:23:18 10:23:43 10° 64° (ENE) 10:24:22 145.935-145.965
SEEDS 03 Jul 10:32:27 10:36:38 55° 285° (WNW) 10:40:48 437.485
CUBEBUG 2 03 Jul 10:32:46 10:36:41 38° 98° (E) 10:40:43 437.445
NANOSAT C BR1 03 Jul 10:36:07 10:38:22 15° 67° (ENE) 10:40:47 145.865
ZACube-1 03 Jul 10:41:19 10:45:00 29° 96° (E) 10:48:46 437.345
DUCHIFAT 1 03 Jul 10:43:05 10:45:46 17° 68° (ENE) 10:48:34 145.980
POLYITAN 1 03 Jul 10:46:03 10:49:02 19° 68° (ENE) 10:52:07 437.675
Cosmos 2499 03 Jul 10:46:06 10:51:51 29° 87° (E) 10:57:48 435.465 / 435.565
AAUSAT CUBESAT 2 03 Jul 10:47:05 10:51:13 56° 285° (WNW) 10:55:20 437.432
UNISAT 6 03 Jul 10:52:06 10:56:18 54° 74° (ENE) 11:00:29 437.425
ISS 03 Jul 10:52:16 10:54:31 17° 338° (NNW) 10:56:45 145.825
UKube-1 03 Jul 10:52:20 10:53:38 11° 89° (E) 10:55:13 .
